TimeMST,TemperatureF,Dew PointF,Humidity,Sea Level PressureIn,VisibilityMPH,Wind Direction,Wind SpeedMPH,Gust SpeedMPH,PrecipitationIn,Events,Conditions,WindDirDegrees,DateUTC
12:15 AM,50.0,28.4,43,30.06,10.0,ESE,5.8,-,N/A,,Scattered Clouds,110,2014-02-05 07:15:00
12:35 AM,50.0,28.4,43,30.06,10.0,ESE,5.8,-,N/A,,Partly Cloudy,110,2014-02-05 07:35:00
12:55 AM,50.0,28.4,43,30.05,10.0,ESE,4.6,-,N/A,,Mostly Cloudy,110,2014-02-05 07:55:00
1:15 AM,50.0,28.4,43,30.05,10.0,East,3.5,-,N/A,,Mostly Cloudy,90,2014-02-05 08:15:00
1:35 AM,48.2,28.4,46,30.05,10.0,Calm,Calm,-,N/A,,Mostly Cloudy,0,2014-02-05 08:35:00
1:55 AM,48.2,28.4,46,30.05,10.0,Calm,Calm,-,N/A,,Scattered Clouds,0,2014-02-05 08:55:00
2:15 AM,48.2,28.4,46,30.05,10.0,ESE,4.6,-,N/A,,Scattered Clouds,120,2014-02-05 09:15:00
2:35 AM,48.2,28.4,46,30.05,10.0,Calm,Calm,-,N/A,,Mostly Cloudy,0,2014-02-05 09:35:00
2:55 AM,48.2,28.4,46,30.05,10.0,SE,3.5,-,N/A,,Mostly Cloudy,130,2014-02-05 09:55:00
3:15 AM,48.2,28.4,46,30.05,10.0,Calm,Calm,-,N/A,,Overcast,0,2014-02-05 10:15:00
3:35 AM,48.2,28.4,46,30.05,10.0,ESE,4.6,-,N/A,,Mostly Cloudy,120,2014-02-05 10:35:00
3:55 AM,48.2,28.4,46,30.04,10.0,Calm,Calm,-,N/A,,Overcast,0,2014-02-05 10:55:00
4:15 AM,48.2,28.4,46,30.03,10.0,East,5.8,-,N/A,,Overcast,90,2014-02-05 11:15:00
4:35 AM,48.2,28.4,46,30.03,10.0,ESE,3.5,-,N/A,,Overcast,120,2014-02-05 11:35:00
4:55 AM,48.2,28.4,46,30.03,10.0,Calm,Calm,-,N/A,,Overcast,0,2014-02-05 11:55:00
5:15 AM,48.2,28.4,46,30.03,10.0,Calm,Calm,-,N/A,,Overcast,0,2014-02-05 12:15:00
5:35 AM,48.2,28.4,46,30.03,10.0,Calm,Calm,-,N/A,,Overcast,0,2014-02-05 12:35:00
5:55 AM,46.4,30.2,53,30.03,10.0,SE,5.8,-,N/A,,Overcast,130,2014-02-05 12:55:00
6:15 AM,46.4,28.4,50,30.03,10.0,ESE,5.8,-,N/A,,Mostly Cloudy,120,2014-02-05 13:15:00
6:35 AM,46.4,30.2,53,30.04,10.0,Calm,Calm,-,N/A,,Overcast,0,2014-02-05 13:35:00
6:55 AM,46.4,28.4,50,30.04,10.0,Calm,Calm,-,N/A,,Mostly Cloudy,0,2014-02-05 13:55:00
7:15 AM,46.4,28.4,50,30.02,10.0,ENE,6.9,-,N/A,,Mostly Cloudy,70,2014-02-05 14:15:00
7:35 AM,46.4,28.4,50,30.02,10.0,East,4.6,-,N/A,,Overcast,100,2014-02-05 14:35:00
7:55 AM,48.2,28.4,46,30.03,10.0,East,5.8,-,N/A,,Mostly Cloudy,100,2014-02-05 14:55:00
8:15 AM,48.2,28.4,46,30.03,10.0,East,3.5,-,N/A,,Overcast,100,2014-02-05 15:15:00
8:35 AM,48.2,30.2,50,30.04,10.0,SSW,3.5,-,N/A,,Mostly Cloudy,200,2014-02-05 15:35:00
8:50 AM,50.0,28.4,43,30.04,10.0,SE,5.8,-,N/A,,Mostly Cloudy,130,2014-02-05 15:50:00
9:15 AM,53.6,28.4,38,30.03,10.0,East,9.2,-,N/A,,Partly Cloudy,90,2014-02-05 16:15:00
9:30 AM,53.6,30.2,41,30.04,10.0,ESE,5.8,-,N/A,,Scattered Clouds,120,2014-02-05 16:30:00
9:55 AM,55.4,28.4,36,30.04,10.0,SE,5.8,-,N/A,,Scattered Clouds,130,2014-02-05 16:55:00
10:15 AM,55.4,28.4,36,30.05,10.0,Calm,Calm,-,N/A,,Scattered Clouds,0,2014-02-05 17:15:00
10:35 AM,55.4,30.2,38,30.05,10.0,Calm,Calm,-,N/A,,Scattered Clouds,0,2014-02-05 17:35:00
10:55 AM,57.2,28.4,33,30.05,10.0,Calm,Calm,-,N/A,,Clear,0,2014-02-05 17:55:00
11:15 AM,57.2,30.2,36,30.05,10.0,NW,5.8,-,N/A,,Clear,320,2014-02-05 18:15:00
11:35 AM,57.2,30.2,36,30.05,10.0,West,5.8,-,N/A,,Clear,270,2014-02-05 18:35:00
11:55 AM,55.4,32.0,41,30.05,10.0,WSW,6.9,-,N/A,,Partly Cloudy,250,2014-02-05 18:55:00
12:15 PM,57.2,30.2,36,30.04,10.0,North,9.2,-,N/A,,Clear,350,2014-02-05 19:15:00
12:35 PM,57.2,30.2,36,30.03,10.0,North,9.2,-,N/A,,Scattered Clouds,360,2014-02-05 19:35:00
12:55 PM,57.2,32.0,38,30.02,10.0,North,12.7,-,N/A,,Partly Cloudy,350,2014-02-05 19:55:00
1:15 PM,57.2,32.0,38,30.01,10.0,North,10.4,-,N/A,,Partly Cloudy,10,2014-02-05 20:15:00
1:35 PM,59.0,32.0,36,30.00,10.0,NE,12.7,-,N/A,,Mostly Cloudy,40,2014-02-05 20:35:00
1:55 PM,59.0,32.0,36,29.99,10.0,NNE,11.5,-,N/A,,Mostly Cloudy,30,2014-02-05 20:55:00
2:15 PM,60.8,32.0,34,29.98,10.0,NE,11.5,-,N/A,,Scattered Clouds,40,2014-02-05 21:15:00
2:35 PM,59.0,32.0,36,29.98,10.0,NE,12.7,-,N/A,,Mostly Cloudy,40,2014-02-05 21:35:00
2:55 PM,60.8,32.0,34,29.97,10.0,ENE,9.2,-,N/A,,Scattered Clouds,60,2014-02-05 21:55:00
3:15 PM,60.8,32.0,34,29.96,10.0,NE,11.5,-,N/A,,Scattered Clouds,40,2014-02-05 22:15:00
3:35 PM,60.8,32.0,34,29.96,10.0,NNE,11.5,-,N/A,,Partly Cloudy,30,2014-02-05 22:35:00
3:55 PM,60.8,32.0,34,29.97,10.0,Variable,5.8,13.8,N/A,,Clear,0,2014-02-05 22:55:00
4:15 PM,60.8,32.0,34,29.97,10.0,NE,9.2,-,N/A,,Mostly Cloudy,40,2014-02-05 23:15:00
4:35 PM,60.8,32.0,34,29.97,10.0,NE,8.1,-,N/A,,Overcast,40,2014-02-05 23:35:00
4:55 PM,59.0,30.2,34,29.97,10.0,NE,8.1,-,N/A,,Mostly Cloudy,40,2014-02-05 23:55:00
5:15 PM,59.0,30.2,34,29.98,10.0,North,3.5,-,N/A,,Mostly Cloudy,360,2014-02-06 00:15:00
5:35 PM,59.0,30.2,34,29.98,10.0,North,6.9,-,N/A,,Overcast,360,2014-02-06 00:35:00
5:55 PM,59.0,30.2,34,29.99,10.0,North,4.6,-,N/A,,Overcast,10,2014-02-06 00:55:00
6:15 PM,57.2,30.2,36,29.99,10.0,NNE,4.6,-,N/A,,Overcast,30,2014-02-06 01:15:00
6:30 PM,57.2,32.0,38,29.99,10.0,NE,4.6,-,N/A,,Overcast,40,2014-02-06 01:30:00
7:15 PM,55.4,30.2,38,30.01,10.0,NNE,3.5,-,N/A,,Overcast,30,2014-02-06 02:15:00
7:30 PM,55.4,32.0,41,30.01,10.0,NE,4.6,-,N/A,,Overcast,40,2014-02-06 02:30:00
7:55 PM,53.6,30.2,41,30.01,10.0,NE,5.8,-,N/A,,Overcast,50,2014-02-06 02:55:00
8:15 PM,53.6,30.2,41,30.02,10.0,ENE,4.6,-,N/A,,Overcast,70,2014-02-06 03:15:00
8:35 PM,51.8,30.2,44,30.02,10.0,ESE,4.6,-,N/A,,Mostly Cloudy,110,2014-02-06 03:35:00
8:55 PM,48.2,30.2,50,30.02,10.0,ESE,6.9,-,N/A,,Partly Cloudy,120,2014-02-06 03:55:00
9:15 PM,48.2,30.2,50,30.02,10.0,ESE,6.9,-,N/A,,Clear,120,2014-02-06 04:15:00
9:35 PM,48.2,30.2,50,30.02,10.0,ESE,8.1,-,N/A,,Clear,120,2014-02-06 04:35:00
9:55 PM,48.2,30.2,50,30.02,10.0,ESE,9.2,-,N/A,,Clear,120,2014-02-06 04:55:00
10:15 PM,48.2,30.2,50,30.03,10.0,ESE,8.1,-,N/A,,Clear,110,2014-02-06 05:15:00
10:35 PM,46.4,30.2,53,30.03,10.0,ESE,8.1,-,N/A,,Clear,120,2014-02-06 05:35:00
10:55 PM,46.4,30.2,53,30.04,10.0,ESE,9.2,-,N/A,,Clear,120,2014-02-06 05:55:00
11:15 PM,46.4,30.2,53,30.04,10.0,ESE,8.1,-,N/A,,Clear,120,2014-02-06 06:15:00
11:35 PM,46.4,30.2,53,30.04,10.0,ESE,9.2,-,N/A,,Clear,120,2014-02-06 06:35:00
11:55 PM,46.4,30.2,53,30.04,10.0,ESE,8.1,-,N/A,,Clear,120,2014-02-06 06:55:00